カタログに戻る

STARLINK-4095

運用中通信VLEO
NORAD 53170·PAYLOAD·🇺🇸 United States

打ち上げ Jul 17, 2022 から Cape Canaveral Space Force Station

Loading…

次のパス (今後24時間)

TLE

最新Source: CelesTrak SupGP

元期: Sep 15, 2026, 01:48 UTC

1 53170C 22083AQ  26258.07548611  .00640380  00000+0  30320-1 0  2583
2 53170  53.1597  28.0145 0001324  86.5640 271.4802 15.18506724    11

AllMySatでSTARLINK-4095をリアルタイム追跡

Download on the App Store